Location: Newark
(36.7000°N, 45.1333°E)
Time: 14:36:59
(UTC+00:00)

LightSail 2 - Pass Details

Date: 20 January 2020
Orbit: 697 x 724 km, 24.0° (Epoch: 29 February)

Event Time Altitude Azimuth Distance (km) Brightness Sun altitude
Rises 15:12:18 0° 228° (SW) 3,082 9.7 -12.2°
Reaches altitude 10° 15:15:33 10° 208° (SSW) 2,172 8.3 -12.9°
Maximum altitude 15:18:41 16° 170° (S) 1,789 7.3 -13.5°
Drops below altitude 10° 15:21:50 10° 132° (SE) 2,187 7.3 -14.1°
Enters shadow 15:22:38 - 126° (SE) 2,381 7.5 -14.2°
